Torna al catalogo

STARLINK-33814

AttivoComunicazioniVLEO
NORAD 63582·PAYLOAD·🇺🇸 United States

Lanciato Apr 14, 2025 da Cape Canaveral Space Force Station

Loading…

Prossimi Passaggi (prossime 24 ore)

TLE

AggiornatoSource: CelesTrak SupGP

Epoca: Sep 15, 2026, 02:22 UTC

1 63582C 25076P   26258.09909722  .00043760  00000+0  15846-2 0  2588
2 63582  43.0023 331.7524 0001371 267.1384   1.0532 15.27564705    10

Traccia STARLINK-33814 in tempo reale con AllMySat

Download on the App Store